Location: Boda
(47.1872°N, 9.5454°E)
Time: 18:39:51
(UTC+00:00)

Lacrosse 5 - Pass Details

Date: 14 May 2021
Orbit: 715 x 724 km, 57.0° (Epoch: 13 June)

Event Time Altitude Azimuth Distance (km) Brightness Sun altitude
Exits shadow 01:29:46 14° 269° (W) 1,927 3.8 -17.8°
Maximum altitude 01:33:46 41° 336° (NNW) 1,034 2.9 -17.5°
Drops below altitude 10° 01:38:36 10° 47° (NE) 2,210 5.6 -17.0°
Sets 01:41:07 0° 55° (NE) 3,134 6.6 -16.7°
